User: anonymous
Location: Delta State University
(33.7460°N, 90.7320°W)
Time: 04:26:37
(UTC-05:00)
Language:

Iridium 13 - Orbit

View from above orbital plane
View from above orbital plane
View from above satellite
View from above satellite

Ground track
Ground track

The orbit data is extracted from the following two-line orbital elements,

1 24840U 97030E   14211.25022700  .00000123  00000-0  36765-4 0  8709
2 24840 086.3936 070.3598 0002205 096.1166 040.1670 14.34218846896029
Epoch (UTC): 30 July 2014 06:00:19
Eccentricity: 0.0002205
inclination: 86.3936°
perigee height: 776 km
apogee height: 779 km
right ascension of ascending node: 70.3598°
argument of perigee: 96.1166°
revolutions per day: 14.34218846
mean anomaly at epoch: 40.1670°
orbit number at epoch: 89602

The dashed part of the orbit path shows where the satellite is in the earth's shadow,  

DLR